User: anonymous   Login
Location: Düngen
(52.0952°N, 10.0219°E)
Time: 07:56:04
(UTC+00:00)
Language:

CZ-4 R/B - Orbit

View from above orbital plane
View from above orbital plane
View from above satellite
View from above satellite

Ground track
Ground track

The orbit is defined by the following mean orbital elements,

1 29507U          26140.09976455 +.00000000 +00000-0 +14034-3 0 00009
2 29507  97.5471 184.7958 0033257  22.8421 337.4283 15.17541567    01
Epoch (UTC): 20 May 2026 02:23:39
Eccentricity: 0.0033257
inclination: 97.5471°
perigee height: 490 km
apogee height: 536 km
right ascension of ascending node: 184.7958°
argument of perigee: 22.8421°
revolutions per day: 15.17541567
mean anomaly at epoch: 337.4283°

The dashed part of the orbit path shows where the satellite is in the earth's shadow,  

DLR